Regional Weather Roundup
Issued by NWS

Home | Current Version | Previous Version | Text Only | Print | Product List | Glossary Off
Versions: 1 2 3 4 5 6 7 8 9 10 11 12 13 14 15 16 17 18 19 20 21 22 23 24 25 26 27 28 29 30 31 32 33 34 35 36 37 38 39 40 41 42 43 44 45 46 47 48 49 50

000
ASUS43 KLMK 251910
RWRKY
KENTUCKY REGIONAL WEATHER ROUNDUP
NATIONAL WEATHER SERVICE LOUISVILLE KY
300 PM EDT TUE JUL 25 2017

NOTE "FAIR" INDICATES FEW OR NO CLOUDS BELOW 12,000 FEET
WITH NO SIGNIFICANT WEATHER AND/OR OBSTRUCTIONS TO VISIBILITY.

KYZ001>023-026-027-061>063-070>075-252000-
WESTERN AND SOUTH CENTRAL KENTUCKY

CITY           SKY/WX    TMP DP  RH WIND       PRES   REMARKS
PADUCAH        PTSUNNY   89  75  63 S3        30.05F THUNDER HX  99
HENDERSON      SUNNY     86  72  62 E7        30.11S HX  92
OWENSBORO      MOSUNNY   88  70  55 E9        30.11S HX  93
HOPKINSVILLE   PTSUNNY   88  74  63 NE6       30.08S HX  96
BOWLING GREEN  MOSUNNY   91  73  55 E5        30.10F HX  99
GLASGOW        SUNNY     90  67  47 NE6       30.12S HX  93
$$

KYZ024-025-028>034-038-045-046-053-252000-
NORTH CENTRAL KENTUCKY

CITY           SKY/WX    TMP DP  RH WIND       PRES   REMARKS
LOUISVILLE/SDF MOSUNNY   87  66  49 N7        30.12F
LOUISVILLE/LOU MOSUNNY   86  67  52 NE9       30.13F
FORT KNOX      MOSUNNY   83  68  59 N7        30.12F
$$

KYZ035>037-039>044-047>052-055>060-089>105-252000-
NORTHEAST KENTUCKY

CITY           SKY/WX    TMP DP  RH WIND       PRES   REMARKS
LEXINGTON      PTSUNNY   83  65  54 NE10      30.16F
COVINGTON      MOSUNNY   80  59  48 E9        30.17F
FRANKFORT      PTSUNNY   81  63  54 E7        30.15F
$$

KYZ054-064>069-076>088-106>120-252000-
SOUTHEAST KENTUCKY

CITY           SKY/WX    TMP DP  RH WIND       PRES   REMARKS
JACKSON        MOSUNNY   82  68  62 CALM      30.17S
LONDON         MOSUNNY   83  67  58 VRB5      30.15F
SOMERSET       MOSUNNY   81  68  65 N7        30.15S
MIDDLESBORO    PTSUNNY   86  71  59 N3        30.12F HX  91
MONTICELLO     PTCLDY    85  72  65 NW9       30.15S HX  91
$$





USA.gov is the U.S. government's official web portal to all federal, state and local government web resources and services.